Find Starlink 35920

NORAD ID: 66623 Int'l Des: 2025-271 Owner: SPXS Country: US Constellation: starlink operational
LEOCIRCULAR

实时位置

正在加载3D地球...

关于 Starlink 35920

正在加载描述...

即将过境

Passes for default location (London). Set your location on the main map for personalized predictions.

高度历史

Loading altitude history...

两行轨道根数

1 66623U 25271G 26103.93295728 .00004094 00000-0 15027-3 0 9992
2 66623 53.1564 336.1556 0000650 44.3313 315.7739 15.30196819 22964
Epoch: Apr 13, 2026 • Age: 24 hours

当前状态

高度 475.7 km
速度 7.63 km/s
星下点 19.21°N, 45.42°W
发射日期 Nov 23, 2025
运行时间 0.3 years
类型 internet

技术详情

分类 Payload
质量 575.00 kg
干质量 530.00 kg
总质量 575.00 kg
长度 0.30 m
直径 4.10 m
跨度 29.00 m
形状 Box + pan
制造商 SPXS
平台类型 Starlink V2MO
阶段状态 In Orbit
所有者/国家 SPXS/US

Most Searched